Home   Weather   Yokosuka   Past weeks
Flag for Japan

Past Weather in Yokosuka, Japan — Yesterday and Last 2 Weeks

Now
72 °F

Passing clouds.


Feels Like: 77 °F
Forecast: 78 / 62 °F
Wind: 13 mph from South

Location: Tokyo International Airport

Current Time: May 23, 2019 at 8:04:55 pm

Latest Report: May 23, 2019 at 7:30 pm


Visibility: N/A

Pressure: 29.77 "Hg

Humidity: 50%

Dew Point: 52 °F

Location of YokosukaLocation

Past Weather in Yokosuka — Graph

°F

Yokosuka Temperature Yesterday

Maximum temperature yesterday: 73 °F (at 2:00 pm)
Minimum temperature yesterday: 61 °F (at 4:00 am)
Average temperature yesterday: 67 °F

High & Low Weather Summary for the Past Weeks

 TemperatureHumidityPressure
High79 °F (May 11, 2:00 pm)100% (May 12, 4:00 am)30.24 "Hg (May 12, 4:00 am)
Low57 °F (May 13, 3:30 am)28% (May 10, 2:30 pm)29.50 "Hg (May 21, 2:49 pm)
Average67 °F70%29.94 "Hg
* Reported May 8 6:00 pm — May 23 6:30 pm, Yokosuka. Weather by CustomWeather, © 2019

Note: Actual official high and low records may vary slightly from our data, if they occured in-between our weather recording intervals... More about our weather records

Advertising

Yokosuka Weather History for the Previous 24 Hours

Scroll right to see more
 ConditionsComfort  
Time TempWeatherWind HumidityBarometerVisibility
6:30 pm
Thu, May 23
73 °FPassing clouds.14 mph47%29.77 "HgN/A
6:00 pm73 °FPassing clouds.15 mph50%29.77 "HgN/A
5:30 pm75 °FPassing clouds.17 mph47%29.74 "HgN/A
5:00 pm75 °FPassing clouds.17 mph54%29.74 "HgN/A
4:30 pm77 °FPassing clouds.15 mph44%29.74 "HgN/A
4:00 pm79 °FPassing clouds.10 mph34%29.74 "HgN/A
3:30 pm79 °FPassing clouds.7 mph37%29.74 "HgN/A
3:00 pm77 °FPassing clouds.6 mph42%29.74 "HgN/A
2:30 pm77 °FPassing clouds.7 mph39%29.74 "HgN/A
2:00 pm77 °FPassing clouds.8 mph42%29.74 "HgN/A
1:30 pm77 °FPassing clouds.8 mph39%29.77 "HgN/A
1:00 pm77 °FPassing clouds.9 mph42%29.77 "HgN/A
12:30 pm75 °FPassing clouds.8 mph47%29.77 "HgN/A
12:00 pm75 °FPassing clouds.6 mph39%29.77 "HgN/A
11:30 am75 °FPassing clouds.5 mph47%29.80 "HgN/A
11:00 am73 °FPassing clouds.5 mph50%29.80 "HgN/A
10:30 am73 °FPassing clouds.2 mph44%29.80 "HgN/A
10:00 am73 °FPassing clouds.5 mph44%29.80 "HgN/A
9:30 am73 °FPassing clouds.6 mph47%29.80 "HgN/A
9:00 am72 °FPassing clouds.7 mph47%29.80 "HgN/A
8:30 am72 °FPassing clouds.6 mph50%29.80 "HgN/A
8:00 am70 °FPassing clouds.9 mph53%29.80 "HgN/A
7:30 am68 °FScattered clouds.10 mph53%29.80 "HgN/A
7:00 am66 °FPartly sunny.13 mph56%29.80 "HgN/A
6:30 am66 °FPartly sunny.12 mph56%29.80 "HgN/A
6:00 am64 °FPartly sunny.12 mph60%29.80 "HgN/A
5:30 am64 °FPartly sunny.14 mph60%29.80 "HgN/A
5:00 am64 °FPartly sunny.14 mph60%29.80 "HgN/A
4:30 am63 °FPassing clouds.9 mph64%29.80 "HgN/A
4:00 am64 °FPassing clouds.10 mph56%29.80 "HgN/A
3:30 am64 °FPassing clouds.7 mph56%29.77 "HgN/A
3:00 am66 °FPassing clouds.9 mph64%29.77 "HgN/A
2:30 am66 °FPassing clouds.6 mph52%29.77 "HgN/A
2:00 am66 °FPassing clouds.8 mph52%29.77 "HgN/A
1:30 am66 °FPassing clouds.7 mph64%29.77 "HgN/A
1:00 am66 °FPassing clouds.7 mph64%29.77 "HgN/A
12:30 am64 °FPassing clouds.6 mph64%29.77 "HgN/A
12:00 am66 °FPassing clouds.5 mph56%29.77 "HgN/A
11:30 pm
Wed, May 22
64 °FPassing clouds.3 mph60%29.77 "HgN/A
11:00 pm66 °FPassing clouds.3 mph60%29.77 "HgN/A
10:30 pm66 °FPassing clouds.3 mph56%29.77 "HgN/A
10:00 pm66 °FPassing clouds.7 mph60%29.77 "HgN/A
9:30 pm66 °FPassing clouds.9 mph60%29.77 "HgN/A
9:00 pm66 °FPassing clouds.10 mph56%29.77 "HgN/A
8:30 pm68 °FPassing clouds.9 mph53%29.77 "HgN/A
8:00 pm68 °FPassing clouds.8 mph53%29.74 "HgN/A
Weather by CustomWeather, © 2019

See weather overview